Content
SEND FEEDBACK

Daily
Averages
Monthly
Summary
United States of America

AGAT, GUAM


Home > North America > United States > Guam
Elevation: 110 meters     Latitude: 13 33N     Longitude: 144 50E

WEATHER
 
SELECT A DAY
Number of Records: 209,285;   Date Range: 1/1/95 - 9/16/14
 
SHARE

PRINT THIS DATA

[ ← Previous Day ]
WEATHER ALMANAC - 28 JANUARY, 2013
[ Next Day → ]
[ °F ]   °C
Weather ElementAverageHighLow
Temperature25.9 °C28.9 °C (12:54 pm)23.3 °C (4:54 am)
Dewpoint19.4 °C21.1 °C (10:54 am)18 °C (7:35 am)
Humidity67.4 %79 % (4:54 am)55 % (3:54 pm)
Barometer1013.2 hPa1014.9 hPa (7:35 am)1011.2 hPa (2:54 pm)
Wind Speed16.7 km/h27.8 km/h (9:54 am)
Wind Gust40.7 km/h (12:54 pm)
Weather ElementAverage
Visibility16.1 km
Wind DirectionENE (65 °)

Weather ElementTotal
Precipitation---
Cooling Degree Days7.8 (Base 18.3)
Growing Degree Days16.1 (Base 10)
Averaged from 24 records on 28 January, 2013
WEATHER CONDITIONS BREAKOUT
WIND DIRECTION BREAKOUT
WEATHER BY HOUR - 28 JANUARY, 2013
[ °F ]   °C
Local TimeTemperatureDewpointHumidityBarometerVisibilityWind DirectionWind SpeedGust SpeedPrecipitationEventsConditions
1:54 AM24.4 °C18.9 °C71 %1013.2 hPa16.1 kmENE (60°)11.1 km/hClear
2:54 AM23.9 °C18.9 °C73 %1012.9 hPa16.1 kmNE (50°)11.1 km/hClear
3:54 AM23.9 °C19.4 °C76 %1012.9 hPa16.1 kmNE (50°)11.1 km/hClear
4:54 AM23.3 °C19.4 °C79 %1013.2 hPa16.1 kmENE (60°)9.3 km/hClear
5:54 AM23.3 °C18.9 °C76 %1013.9 hPa16.1 kmENE (60°)11.1 km/hClear
6:54 AM25 °C19.4 °C71 %1013.9 hPa16.1 kmENE (70°)20.4 km/hPartly Cloudy
7:35 AM25 °C18 °C65 %1014.9 hPa16.1 kmENE (70°)14.8 km/hPartly Cloudy
7:54 AM25.6 °C18.3 °C64 %1014.2 hPa16.1 kmENE (70°)18.5 km/hClear
8:54 AM26.7 °C19.4 °C64 %1014.6 hPa16.1 kmENE (70°)22.2 km/hClear
9:54 AM27.8 °C20 °C62 %1014.6 hPa16.1 kmENE (60°)27.8 km/h38.9 km/hPartly Cloudy
10:54 AM27.8 °C21.1 °C67 %1013.9 hPa16.1 kmEast (90°)22.2 km/h37 km/hMostly Cloudy
11:54 AM27.8 °C21.1 °C67 %1013.2 hPa16.1 kmEast (80°)25.9 km/hMostly Cloudy
12:54 PM28.9 °C20.6 °C61 %1012.5 hPa16.1 kmEast (90°)24.1 km/h40.7 km/hMostly Cloudy
1:54 PM28.9 °C20.6 °C61 %1011.5 hPa16.1 kmENE (70°)27.8 km/h40.7 km/hPartly Cloudy
2:54 PM28.3 °C19.4 °C58 %1011.2 hPa16.1 kmEast (80°)22.2 km/h35.2 km/hMostly Cloudy
3:54 PM28.9 °C18.9 °C55 %1011.2 hPa16.1 kmENE (60°)18.5 km/h33.3 km/hPartly Cloudy
4:54 PM27.8 °C18.9 °C58 %1012.2 hPa16.1 kmEast (80°)22.2 km/h33.3 km/hMostly Cloudy
5:54 PM26.7 °C19.4 °C64 %1012.5 hPa16.1 kmENE (60°)13 km/hPartly Cloudy
6:54 PM25.6 °C18.9 °C66 %1012.9 hPa16.1 kmNE (50°)11.1 km/hPartly Cloudy
7:54 PM25 °C18.9 °C69 %1013.2 hPa16.1 kmENE (60°)13 km/hClear
8:54 PM25.6 °C18.3 °C64 %1013.9 hPa16.1 kmENE (60°)13 km/hPartly Cloudy
9:54 PM23.3 °C18.9 °C76 %1014.2 hPa16.1 kmNE (40°)9.3 km/hPartly Cloudy
10:54 PM23.9 °C19.4 °C76 %1014.2 hPa16.1 kmNE (50°)11.1 km/hPartly Cloudy
11:54 PM25 °C20 °C74 %1013.9 hPa16.1 kmENE (70°)9.3 km/hMostly Cloudy
Hourly data recorded from PGUM, located 0 kilometers away from Agat, Guam







STORIES FROM OUR PARTNERS